Date String (YYYY-MM-DD hh:mm:ss) UTC,Instrument flags,Ambient pressure (hPa),Sample flow (lpm),Bypass flow (lpm),Sample temperature (°C),Ambient temperature (°C),ASC tube jacket temperature (°C),LED temperature (°C),Box temperature (°C),Sample RH (%),Span deviation,Mass concentration (μg/m³),Mass concentration (μg/m³),Mass concentration (μg/m³)
DateTimeUTC,F1_M11,P_M11,Q1_M11,Q2_M11,T1_M11,T2_M11,T3_M11,T4_M11,T5_M11,U1_M11,ZSPAN_M11,X0_M11,X2_M11,X1_M11
2022-07-30 02:00:00,,0829.9,5.00,0.00,29.8,28.5,00.0,38.5,31.7,33.2,0000.0,0011.33,0004.85,0004.21
2022-07-30 02:01:00,,0829.9,5.00,0.00,29.9,28.6,00.0,38.5,31.7,33.5,0000.0,0011.46,0004.83,0004.19
2022-07-30 02:02:00,,0829.8,4.99,0.00,29.9,28.7,00.0,38.5,31.8,33.5,0000.0,0012.02,0004.84,0004.18
2022-07-30 02:03:00,,0829.9,5.00,0.00,29.9,28.6,00.0,38.5,31.7,33.8,0000.0,0011.82,0004.82,0004.17
2022-07-30 02:04:00,,0829.8,5.00,0.00,29.9,27.9,00.0,38.5,31.5,33.4,0000.0,0011.75,0004.80,0004.16
2022-07-30 02:05:00,,0829.8,5.01,0.00,29.8,27.3,00.0,38.5,31.4,33.5,0000.0,0011.57,0004.77,0004.15
2022-07-30 02:06:00,,0829.9,5.00,0.00,29.8,27.1,00.0,38.4,31.3,33.4,0000.0,0011.42,0004.74,0004.16
2022-07-30 02:07:00,,0829.9,5.00,0.00,29.6,27.1,00.0,38.4,31.2,33.3,0000.0,0012.64,0004.71,0004.15
2022-07-30 02:08:00,,0829.9,5.01,0.00,29.6,27.3,00.0,38.4,31.3,33.7,0000.0,0011.69,0004.70,0004.15
2022-07-30 02:09:00,,0829.9,5.00,0.00,29.6,27.5,00.0,38.4,31.3,33.5,0000.0,0011.34,0004.70,0004.16
2022-07-30 02:10:00,,0829.8,5.00,0.00,29.6,27.6,00.0,38.4,31.4,33.5,0000.0,0011.23,0004.74,0004.15
2022-07-30 02:11:00,,0829.9,5.00,0.00,29.6,27.8,00.0,38.4,31.4,33.8,0000.0,0010.94,0004.73,0004.15
2022-07-30 02:12:00,,0829.9,4.99,0.00,29.6,28.0,00.0,38.4,31.4,33.7,0000.0,0011.07,0004.73,0004.17
2022-07-30 02:13:00,,0830.0,5.00,0.00,29.6,28.1,00.0,38.4,31.5,33.6,0000.0,0010.66,0004.74,0004.17
2022-07-30 02:14:00,,0830.1,4.99,0.00,29.6,28.2,00.0,38.4,31.5,33.5,0000.0,0010.94,0004.71,0004.16
2022-07-30 02:15:00,,0830.1,5.01,0.00,29.7,28.4,00.0,38.4,31.5,33.4,0000.0,0010.96,0004.72,0004.16
2022-07-30 02:16:00,,0830.0,5.00,0.00,29.7,28.5,00.0,38.4,31.6,33.4,0000.0,0010.94,0004.72,0004.15
2022-07-30 02:17:00,,0830.0,5.01,0.00,29.7,28.6,00.0,38.4,31.7,33.4,0000.0,0010.81,0004.70,0004.15
2022-07-30 02:18:00,,0830.1,4.99,0.00,29.7,28.6,00.0,38.4,31.7,33.5,0000.0,0009.31,0004.70,0004.15
2022-07-30 02:19:00,,0830.1,5.01,0.00,29.8,28.7,00.0,38.5,31.8,33.8,0000.0,0009.28,0004.71,0004.15
2022-07-30 02:20:00,,0830.1,5.00,0.00,29.8,28.4,00.0,38.5,31.6,34.0,0000.0,0009.12,0004.69,0004.13
2022-07-30 02:21:00,,0830.1,4.99,0.00,29.8,27.8,00.0,38.4,31.5,34.0,0000.0,0009.15,0004.70,0004.14
2022-07-30 02:22:00,,0830.1,5.00,0.00,29.7,27.6,00.0,38.4,31.5,34.1,0000.0,0009.19,0004.72,0004.14
2022-07-30 02:23:00,,0830.1,5.01,0.00,29.7,27.6,00.0,38.4,31.4,34.2,0000.0,0009.02,0004.74,0004.13
2022-07-30 02:24:00,,0830.1,5.00,0.00,29.6,27.7,00.0,38.4,31.4,34.4,0000.0,0008.85,0004.73,0004.12
2022-07-30 02:25:00,,0830.2,5.00,0.00,29.6,27.9,00.0,38.4,31.5,34.5,0000.0,0008.61,0004.77,0004.13
2022-07-30 02:26:00,,0830.1,5.01,0.00,29.6,28.0,00.0,38.4,31.5,34.5,0000.0,0008.58,0004.79,0004.12
2022-07-30 02:27:00,,0830.2,5.00,0.00,29.6,28.1,00.0,38.4,31.5,34.6,0000.0,0008.71,0004.77,0004.11
2022-07-30 02:28:00,,0830.2,4.99,0.00,29.7,28.3,00.0,38.4,31.6,34.8,0000.0,0009.41,0004.75,0004.10
2022-07-30 02:29:00,,0830.2,5.01,0.00,29.7,28.4,00.0,38.4,31.6,34.8,0000.0,0009.51,0004.77,0004.09
2022-07-30 02:30:00,,0830.2,5.01,0.00,29.7,28.5,00.0,38.4,31.7,34.9,0000.0,0009.53,0004.76,0004.08
2022-07-30 02:31:00,,0830.2,5.00,0.00,29.8,28.6,00.0,38.5,31.7,35.0,0000.0,0009.60,0004.76,0004.07
2022-07-30 02:32:00,,0830.2,5.00,0.00,29.9,28.7,00.0,38.5,31.8,34.8,0000.0,0009.60,0004.74,0004.07
2022-07-30 02:33:00,,0830.2,5.00,0.00,30.1,28.6,00.0,38.5,31.8,34.5,0000.0,0009.91,0004.69,0004.05
2022-07-30 02:34:00,,0830.2,4.99,0.00,30.1,28.0,00.0,38.5,31.7,34.6,0000.0,0009.76,0004.64,0004.05
2022-07-30 02:35:00,,0830.2,5.01,0.00,30.1,27.6,00.0,38.5,31.6,34.7,0000.0,0009.67,0004.63,0004.05
2022-07-30 02:36:00,,0830.2,4.99,0.00,30.0,27.6,00.0,38.5,31.5,34.9,0000.0,0009.55,0004.59,0004.05
2022-07-30 02:37:00,,0830.2,5.00,0.00,30.0,27.7,00.0,38.5,31.5,34.9,0000.0,0009.42,0004.54,0004.06
2022-07-30 02:38:00,,0830.1,5.01,0.00,30.0,27.8,00.0,38.5,31.5,35.1,0000.0,0009.55,0004.52,0004.06
2022-07-30 02:39:00,,0830.2,4.99,0.00,30.1,27.9,00.0,38.5,31.7,34.9,0000.0,0009.27,0004.57,0004.07
2022-07-30 02:40:00,,0830.2,5.00,0.00,30.3,28.1,00.0,38.6,31.8,34.4,0000.0,0009.75,0004.58,0004.06
2022-07-30 02:41:00,,0830.2,5.00,0.00,30.4,28.2,00.0,38.6,31.8,34.2,0000.0,0009.65,0004.53,0004.06
2022-07-30 02:42:00,,0830.2,5.01,0.00,30.4,28.3,00.0,38.6,31.8,34.1,0000.0,0009.54,0004.54,0004.06
2022-07-30 02:43:00,,0830.2,4.99,0.00,30.5,28.5,00.0,38.7,31.9,34.0,0000.0,0009.55,0004.52,0004.07
2022-07-30 02:44:00,,0830.2,5.00,0.00,30.5,28.6,00.0,38.7,31.9,34.1,0000.0,0009.07,0004.52,0004.07
2022-07-30 02:45:00,,0830.2,5.00,0.00,30.5,28.7,00.0,38.8,31.9,34.1,0000.0,0009.19,0004.54,0004.06
2022-07-30 02:46:00,,0830.2,5.01,0.00,30.5,28.7,00.0,38.8,31.9,34.2,0000.0,0009.43,0004.56,0004.06
2022-07-30 02:47:00,,0830.2,5.00,0.00,30.5,28.1,00.0,38.8,31.8,34.4,0000.0,0009.83,0004.56,0004.06
2022-07-30 02:48:00,,0830.2,5.00,0.00,30.4,27.5,00.0,38.8,31.6,34.8,0000.0,0010.17,0004.59,0004.06
2022-07-30 02:49:00,,0830.2,5.01,0.00,30.3,27.2,00.0,38.8,31.5,34.7,0000.0,0010.51,0004.62,0004.07
2022-07-30 02:50:00,,0830.1,5.00,0.00,30.2,27.2,00.0,38.8,31.4,35.0,0000.0,0010.30,0004.61,0004.07
2022-07-30 02:51:00,,0830.1,5.01,0.00,30.3,27.3,00.0,38.8,31.5,35.1,0000.0,0009.54,0004.61,0004.07
2022-07-30 02:52:00,,0830.1,5.00,0.00,30.5,27.4,00.0,38.8,31.7,34.6,0000.0,0009.65,0004.67,0004.08
2022-07-30 02:53:00,,0830.1,5.00,0.00,30.6,27.6,00.0,38.7,31.7,34.4,0000.0,0009.82,0004.66,0004.07
2022-07-30 02:54:00,,0830.2,5.00,0.00,30.6,27.8,00.0,38.8,31.7,34.3,0000.0,0009.88,0004.69,0004.06
2022-07-30 02:55:00,,0830.1,5.00,0.00,30.6,27.9,00.0,38.8,31.8,34.3,0000.0,0009.72,0004.72,0004.07
2022-07-30 02:56:00,,0830.1,5.00,0.00,30.6,28.1,00.0,38.8,31.8,34.3,0000.0,0009.66,0004.70,0004.07
2022-07-30 02:57:00,,0830.1,5.00,0.00,30.6,28.2,00.0,38.9,31.8,34.4,0000.0,0009.62,0004.72,0004.06
2022-07-30 02:58:00,,0830.2,5.00,0.00,30.6,28.3,00.0,38.9,31.8,34.6,0000.0,0009.36,0004.74,0004.05
2022-07-30 02:59:00,,0830.3,4.98,0.00,30.6,28.4,00.0,38.9,31.9,34.7,0000.0,0008.99,0004.71,0004.04
